Location: Dere?nia?ska Wola
(50.4841°N, 22.6622°E)
Time: 07:08:08
(UTC+00:00)

Daily predictions for brighter satellites

Satellite Brightness Start Highest point End
(mag) Time Altitude Azimuth Time Altitude Azimuth Time Altitude Azimuth
BREEZE-M R/B 3.0 15:38:16 10° WSW 15:41:24 77° S 15:47:21 10° E
Cosmos 2266 Rocket 4.1 15:36:54 10° N 15:43:10 89° ENE 15:49:30 10° S
Meteor 1-16 Rocket 4.2 15:38:12 10° S 15:43:50 88° E 15:49:18 10° NNE
AQUARIUS 4.1 15:39:46 10° SSE 15:44:13 74° ENE 15:48:45 10° N
Cosmos 2227 Rocket 2.7 15:39:51 10° NNW 15:45:09 39° NE 15:50:25 10° ESE
H-2A R/B 3.5 15:44:03 10° E 15:47:46 19° NE 15:51:30 10° NNE
Cosmos 1689 Rocket 3.9 15:46:59 10° ENE 15:48:27 13° E 15:49:54 10° ESE
Cosmos 1400 Rocket 4.1 15:46:19 10° SE 15:49:26 21° E 15:52:32 10° NE
GEOS 3 Rocket 4.5 15:44:53 10° E 15:49:42 35° NNE 15:54:34 10° NNW
Cosmos 2263 Rocket 4.0 15:46:51 10° N 15:49:56 14° NNE 15:53:00 10° ENE
Cosmos 1908 3.3 15:47:51 10° SSW 15:51:42 84° W 15:55:36 10° N
Cosmos 2058 4.4 15:49:21 10° NNE 15:52:00 16° ENE 15:54:39 10° ESE
NOSS 2-2 (D) 4.4 15:47:11 10° NW 15:52:23 70° NE 15:59:38 10° SE
CZ-4C R/B 3.9 15:47:26 10° NW 15:52:35 27° N 15:58:35 10° ENE
CZ-4 R/B 2.5 15:51:27 10° ESE 15:54:24 21° ENE 15:57:20 10° NNE
Cosmos 1892 4.0 15:51:44 10° NNE 15:54:45 21° ENE 15:57:44 10° ESE
Cosmos 1356 Rocket 4.2 15:53:11 10° SSW 15:57:24 59° WNW 16:01:41 10° N
NOAA 12 4.3 15:53:03 10° SSE 15:58:21 83° WSW 16:03:43 10° NNW
Cosmos 1408 4.2 15:57:17 10° NNE 15:59:33 15° ENE 16:01:49 10° ESE
CZ-4C R/B 4.4 15:58:02 10° N 16:01:07 39° WNW 16:04:14 10° SW
Cosmos 1953 Rocket 3.6 15:59:13 10° N 16:03:36 63° ENE 16:08:01 10° SSE
Cosmos 1697 Rocket 4.2 16:01:46 10° SE 16:04:52 15° E 16:07:49 10° ENE
Cosmos 1331 Rocket 4.0 16:01:37 10° S 16:06:43 65° ESE 16:11:50 10° NNE
IRS-1C Rocket 4.2 16:03:04 10° SE 16:08:12 57° ENE 16:13:23 10° N
Cosmos 1300 2.8 16:04:38 10° S 16:08:20 50° E 16:12:03 10° NNE
Cosmos 2058 Rocket 3.7 16:05:17 10° SSE 16:09:22 36° E 16:13:30 10° NNE
SeaSat 1 3.6 16:06:39 11° E 16:10:22 24° NE 16:14:17 10° N
SL-4 R/B 1.7 16:06:55 10° W 16:10:26 72° N 16:13:29 15° E
USA 215 3.7 16:04:18 10° ENE 16:10:31 51° N 16:16:48 10° WNW
ATLAS 2AS CENTAUR R/B 3.7 16:05:02 10° NW 16:12:04 35° NNE 16:17:50 13° ENE
Cosmos 1346 Rocket 3.8 16:09:46 10° N 16:13:08 25° ENE 16:16:29 10° SE
USA 305 3.0 16:09:24 10° WNW 16:13:42 65° NNE 16:17:18 14° E
CZ-2D R/B 3.6 16:10:20 10° SE 16:13:54 40° ENE 16:17:29 10° N
NOAA 11 4.2 16:09:25 10° SSE 16:14:53 87° ENE 16:20:21 10° NNW
Cosmos 1953 4.5 16:11:42 10° SW 16:15:09 28° WNW 16:18:39 10° N
Cosmos 44 3.3 16:11:22 10° SSW 16:15:47 54° ESE 16:20:29 10° NE
Cosmos 1825 3.7 16:13:35 10° NNE 16:16:03 16° ENE 16:16:47 16° E
USA 306 3.0 16:15:49 10° WNW 16:20:07 68° NNE 16:23:25 16° E
Cosmos 1315 Rocket 4.3 16:18:06 10° SE 16:20:29 16° E 16:20:29 16° E
Cosmos 968 Rocket 3.6 16:17:35 10° NNW 16:22:43 53° ENE 16:27:47 10° SE
ERS-2 2.2 16:20:40 10° NNE 16:24:19 78° WNW 16:27:57 10° SSW
SAR-Lupe-4 3.6 16:20:54 10° NNE 16:24:27 58° ESE 16:27:59 10° S
Cosmos 2297 Rocket 2.2 16:19:34 10° NNW 16:25:17 79° ENE 16:30:58 10° SSE
Aureole 3 Rocket 3.4 16:21:33 10° SSE 16:25:30 51° E 16:30:58 10° NNE
Cosmos 2369 Rocket 4.2 16:20:54 10° W 16:25:30 24° NW 16:30:07 10° NNE
In-Cosmos 22 Rocket 4.1 16:22:40 10° N 16:28:01 64° ENE 16:33:25 10° SSE
MOS 1 Rocket 4.4 16:25:10 10° NE 16:28:50 22° E 16:32:38 10° SE
Cosmos 1340 2.6 16:25:12 10° N 16:28:59 67° ENE 16:32:45 10° SSE
COSMO-SKYMED 1 2.6 16:26:05 10° NNE 16:30:23 54° E 16:34:38 10° S
S3M 4.4 16:26:07 10° SSE 16:31:36 36° E 16:37:09 10° NNE
Cosmos 1076 Rocket 4.3 16:28:13 10° N 16:31:55 28° ENE 16:34:43 15° ESE
H-2A R/B 3.8 16:28:24 10° N 16:32:10 33° WNW 16:35:52 10° SW
Cosmos 1110 Rocket 4.3 16:30:07 10° SSW 16:35:21 71° WNW 16:40:35 10° NNE
SL-08 ROCKET BODY 4.5 16:29:43 10° N 16:35:44 57° ENE 16:41:47 10° SSE
Cosmos 1302 Rocket 4.0 16:32:28 10° S 16:37:39 64° ESE 16:42:54 10° NNE
Lacrosse 5 2.7 16:36:24 10° WNW 16:41:10 40° N 16:44:18 19° ENE
ADEOS Rocket 4.3 16:36:10 10° N 16:42:06 45° WNW 16:48:37 10° SW
SAR-Lupe-1 4.0 16:38:44 10° NNE 16:42:21 87° ESE 16:45:57 10° SSW
Cosmos 1486 Rocket 4.0 16:37:35 10° NNW 16:42:57 77° ENE 16:48:16 10° SSE
Cosmos 292 Rocket 3.9 16:39:46 10° SSW 16:44:34 80° WNW 16:49:27 10° NNE
Aureole 3 2.4 16:41:35 10° S 16:44:41 77° E 16:47:40 10° NNE
Okean O Rocket 3.9 16:41:51 10° SSW 16:45:34 27° W 16:49:17 10° NW
YAOGAN 1 2.5 16:42:52 10° SSE 16:47:07 61° ENE 16:51:25 10° N
FALCON 9 DEB 3.3 16:44:20 10° WNW 16:47:44 59° N 16:48:52 36° ENE
Meteor 2-8 Rocket 4.4 16:41:51 10° S 16:47:56 75° E 16:54:05 10° NNE
ERBS 3.8 16:47:15 10° WNW 16:50:07 26° N 16:51:09 22° NNE
FALCON 9 DEB 3.1 16:47:11 10° SW 16:50:21 57° SSE 16:51:05 43° E
Cosmos 1503 Rocket 4.1 16:47:35 10° NNW 16:52:44 56° ENE 16:56:47 16° SE
CZ-2C R/B 3.2 16:47:40 10° SSE 16:53:25 71° ENE 16:59:01 10° N
Cosmos 1812 Rocket 4.4 16:50:05 10° SSE 16:58:41 - NNE 16:53:14 29° ESE
FALCON 9 DEB 2.9 16:51:26 10° SW 16:54:36 63° SSE 16:55:10 50° ESE
Cosmos 2219 3.7 16:49:47 10° NW 16:55:29 63° WSW 17:01:09 10° SSE
Cosmos 1455 2.8 16:53:23 10° SSE 16:56:10 34° ESE 16:56:10 34° ESE
Cosmos 1726 Rocket 4.4 16:53:58 10° SSW 16:58:12 51° WNW 17:02:30 10° N
Cosmos 1553 Rocket 3.9 16:54:40 10° S 17:01:01 79° E 17:07:18 10° NNE
USA 307 2.8 16:58:47 10° WNW 17:03:06 85° SSW 17:04:41 38° ESE
Meteor 2-10 Rocket 3.5 16:58:47 10° S 17:03:58 59° E 17:09:00 10° NNE
CZ-4B R/B 3.6 17:01:28 10° N 17:04:14 26° WNW 17:06:56 10° SW
Cosmos 1354 Rocket 4.0 16:59:02 10° NNW 17:04:16 61° ENE 17:07:26 24° SE
Cosmos 2082 3.6 16:58:32 10° NNW 17:04:18 75° ENE 17:08:49 17° SE
Cosmos 1939 Rocket 4.1 17:01:28 10° S 17:05:15 42° W 17:09:01 10° NNW
FALCON 9 DEB 2.8 17:03:21 10° WSW 17:06:35 72° SSE 17:06:44 70° SE
USA 308 2.9 17:03:37 10° WNW 17:07:55 81° SSW 17:09:20 41° SE
Meteor 2-15 Rocket 4.4 17:03:29 10° S 17:09:29 59° E 17:15:32 10° NNE
ATLAS 5 CENTAUR R/B 3.8 17:07:17 10° NW 17:10:42 20° N 17:13:29 14° NNE
Helios 1A Rocket 3.7 17:08:19 10° S 17:12:20 52° W 17:16:23 10° NNW
Cosmos 1992 Rocket 4.0 17:11:41 10° S 17:16:46 57° ESE 17:19:35 26° NE
ARGOS 3.1 17:13:10 20° SE 17:16:51 62° ENE 17:22:14 10° N
FALCON 9 DEB 3.1 17:15:01 10° WSW 17:17:56 71° SW 17:17:56 71° SW
SKYMED 2 4.3 17:14:12 10° N 17:18:28 53° WNW 17:22:40 10° SSW
Okean-O 3.3 17:14:27 10° S 17:18:49 54° W 17:23:10 10° NNW
Cosmos 1689 Rocket 3.7 17:17:06 10° N 17:19:46 34° WNW 17:22:26 10° SW
Cosmos 2369 3.9 17:14:23 10° S 17:19:49 47° ESE 17:21:09 39° ENE
Cosmos 2151 4.0 17:16:52 10° N 17:19:28 31° NNE 17:19:28 31° NNE
Meteor 2-15 4.4 17:15:47 10° S 17:21:56 87° E 17:28:06 10° N
SL-08 RB Rocket 4.0 17:22:31 44° NE 17:22:31 44° NE 17:26:20 10° N
Cosmos 1656 3.6 17:17:48 10° SSW 17:23:23 86° WNW 17:28:36 13° NNE
Cosmos 1844 Rocket 4.5 17:20:02 10° N 17:23:25 16° NNE 17:23:39 16° NNE
Cosmos 1745 Rocket 4.1 17:18:14 10° NNW 17:24:32 79° W 17:30:52 10° S
Cosmos 1400 Rocket 4.2 17:21:45 10° SW 17:25:39 41° WNW 17:29:33 10° N
H-2A R/B 2.1 17:21:04 10° SSE 17:26:30 89° WSW 17:32:01 10° NNW
Ariane Rocket 3.5 17:27:38 40° NE 17:27:38 40° NE 17:31:54 10° N
GEOS 3 Rocket 3.7 17:24:32 29° SE 17:27:25 78° SW 17:32:51 10° NW
Geosat 3.9 17:26:30 42° ENE 17:28:02 62° ESE 17:33:00 10° SSW
CZ-4 R/B 2.5 17:25:31 10° S 17:29:13 41° W 17:32:54 10° NNW
Cosmos 2058 3.4 17:25:17 10° NNW 17:29:19 58° W 17:33:20 10° S
Cosmos 2227 Rocket 3.2 17:23:57 10° NW 17:29:20 46° WSW 17:34:41 10° S
Cosmos 1892 4.2 17:26:57 10° NNW 17:30:35 38° W 17:34:12 10° SSW
Cosmos 220 Rocket 3.9 17:29:13 10° SSW 17:33:35 84° ESE 17:34:08 68° NE
CSL-04 Rocket 3.8 17:29:16 10° SSE 17:34:49 77° WSW 17:40:22 10° NNW
Cosmos 1408 3.5 17:31:19 10° NNW 17:34:50 49° W 17:37:15 19° SSW
Timation 1 Rocket 4.2 17:28:56 10° NNW 17:35:00 85° ENE 17:37:24 39° SE
Cosmos 2263 Rocket 2.6 17:29:58 10° NNW 17:35:26 44° NE 17:35:34 44° NE
BREEZE-M R/B 3.6 17:32:08 10° W 17:37:09 55° SW 17:37:09 55° SW
NOSS 3-4 (A) 3.8 17:35:13 10° NW 17:42:02 69° NE 17:44:12 47° ESE
NOSS 3-4 (C) 3.8 17:35:19 10° NW 17:42:08 69° NE 17:44:16 48° ESE
Meteor 2-1 Rocket 4.2 17:36:52 10° SSW 17:42:23 81° WNW 17:47:58 10° N
CZ-4C R/B 3.3 17:36:30 10° NW 17:42:50 43° NNE 17:44:25 38° ENE
SeaSat 1 2.4 17:46:28 58° SSE 17:47:26 81° WSW 17:52:25 10° NNW
Cosmos 1697 Rocket 2.5 17:42:19 10° SSW 17:47:56 83° ESE 17:49:37 47° NE
Cosmos 1346 Rocket 4.5 17:45:57 10° NNW 17:49:33 33° W 17:53:08 10° SSW
SL-4 R/B 2.8 17:46:27 10° WNW 17:49:04 45° W 17:49:04 45° W
Cosmos 1825 3.0 17:48:10 10° NNW 17:51:38 48° W 17:51:38 48° W
NOSS 3-3 (A) 3.8 17:47:11 10° SSW 17:53:02 76° SE 17:54:18 58° ENE
USA 215 3.2 17:51:39 54° E 17:53:09 72° NNE 17:59:41 10° WNW
NOSS 3-3 (C) 3.8 17:47:17 10° SSW 17:53:10 76° SE 17:54:24 59° ENE
USA 305 3.7 17:49:32 10° WNW 17:53:27 45° SW 17:53:27 45° SW
Cosmos 1709 Rocket 4.0 17:47:57 10° NNW 17:54:20 82° W 17:59:42 15° S
Cosmos 1315 Rocket 3.6 17:52:53 10° SSW 17:56:19 48° W 17:56:19 48° W
USA 306 4.0 17:55:59 10° WNW 17:59:35 40° SW 17:59:35 40° SW
BREEZE-M R/B 4.2 17:59:29 10° W 18:04:06 66° SSW 18:05:18 56° SSE
ATLAS 2AS CENTAUR R/B 2.7 17:56:38 10° NW 18:04:16 73° NE 18:05:17 64° E
SJ 16-02 3.8 18:03:22 10° N 18:04:08 14° N 18:04:08 14° N
MOS 1 Rocket 4.0 18:02:50 10° N 18:07:21 54° WNW 18:12:07 10° SSW
Cosmos 2074 Rocket 4.5 18:01:43 10° N 18:06:21 45° NNE 18:06:21 45° NNE
IRS-1A Rocket 4.2 18:10:34 78° N 18:10:34 78° N 18:15:45 10° NNW
Cosmos 1980 Rocket 3.6 18:05:01 10° SSW 18:07:19 26° SSW 18:07:19 26° SSW
Meteor 2-17 Rocket 4.4 18:05:38 10° N 18:10:58 67° NNE 18:10:58 67° NNE
Cosmos 1777 Rocket 4.3 18:06:34 10° NNW 18:10:51 61° NNW 18:10:51 61° NNW
COSMOS 2455 4.4 18:07:41 10° NNW 18:12:00 23° NNE 18:12:00 23° NNE
Cosmos 2315 Rocket 4.0 18:09:54 10° SSW 18:16:07 81° W 18:22:22 10° N
MOS 1 4.4 18:18:03 70° NNW 18:18:03 70° NNW 18:23:02 10° NNW
Resurs 01 Rocket 4.3 18:24:28 11° N 18:24:28 11° N 18:24:34 10° N
Lacrosse 5 2.9 18:19:54 10° WNW 18:23:30 41° NNW 18:23:30 41° NNW
Meteor 2-3 Rocket 4.2 18:30:06 10° NNW 18:34:44 56° NW 18:34:44 56° NW
ATLAS 5 CENTAUR R/B 4.1 18:52:57 10° NW 18:55:01 19° NNW 18:55:01 19° NNW
Cosmos 2263 Rocket 3.9 19:14:05 10° NW 19:17:16 29° WNW 19:17:16 29° WNW
CZ-4C R/B 3.6 19:24:56 10° NW 19:29:36 47° NW 19:29:36 47° NW
ATLAS 2AS CENTAUR R/B 4.3 19:48:14 10° NW 19:52:43 29° W 19:52:43 29° W
